204  
ASUS42 KKEY 210210  
RWRKEY  
 
FLORIDA KEYS REGIONAL WEATHER ROUNDUP  
NATIONAL WEATHER SERVICE KEY WEST FLORIDA  
1000 PM EDT SUN SEP 20 2020  
   
..SOUTH FLORIDA AND THE KEYS
 
 
 
CITY SKY/WX TMP DP RH WIND PRES REMARKS
 
FORT MYERS CLOUDY 76 73 91 NE12 29.92R  
SW REGIONAL AP LGT RAIN 77 73 87 E15G26 29.92F  
NAPLES CLOUDY 82 79 90 NE15 29.92R HX 92  
MIAMI CLOUDY 85 76 74 SW3 29.93R HX 94  
WEST KENDALL CLOUDY 84 79 85 SW3 29.93R HX 96  
HOMESTEAD MOCLDY 82 82 100 S3 29.92R HX 97  
MARATHON PTCLDY 84 76 76 W5 29.92R HX 93  
BOCA CHICA NAS MOCLDY 87 78 74 N7 29.92R HX 100  
KEY WEST INTL MOCLDY 87 78 74 NW5 29.93R HX 100  
   
..INTERNATIONAL WEATHER
 
 
 
CITY SKY/WX TMP DP RH WIND PRES REMARKS
 
NASSAU PTCLDY 84 77 79 N6 29.93R HX 94  
HAVANA PTCLDY 79 79 100 NE3 29.92S  
VARADERO PTCLDY 77 77 100 SE6 29.94R  
CANCUN PTCLDY 79 79 100 CALM 29.92R  
COZUMEL CLEAR 79 77 94 CALM 29.90R  
KINGSTON PTCLDY 84 77 79 N6 29.89R HX 94  
   
..ADJACENT COASTAL WATERS
 
 
 
STATION/POSITION TIME SKY/WX TEMP WIND PRES WAVE
 
AIR SEA DIR/SP/G HT/PER  
(UTC) (F) (DEG/KT/KT) (MB) (FT/S)  
PULASKI SHOAL LI NOT AVBL  
SAND KEY 0150 85 320/ 7/ 9 1013.6R  
SOMBRERO KEY NOT AVBL  
LONG KEY NOT AVBL  
MOLASSES REEF NOT AVBL  
FOWEY ROCKS 0200 86 86 250/ 7/ 9 1013.8R  
BUOY 42095 0130 85 88 N/A 2/ 7  
BUOY 42097 0156 85 N/A 4/ 5  
 

 
 
 
CLICK HERE TO GO TO PREVIOUS BULLETINS.

The Nexlab FL Page Main Text Page